Miscellaneous Local Product
Issued by NWS Hastings, NE

Home | Current Version | Previous Version | Text Only | Print | Product List | Glossary Off
Versions: 1 2 3 4 5 6 7 8 9 10 11 12 13 14 15 16 17 18 19 20 21 22 23 24 25 26 27 28 29 30 31 32 33 34 35 36 37 38 39 40 41 42 43 44 45 46 47 48 49 50

529
AXUS43 KGID 071402
MISGRI

GID CWA HOURLY WEATHER ROUNDUP
NATIONAL WEATHER SERVICE HASTINGS NE
800 AM CST SUN FEB 07 2016

NOTE: "FAIR" INDICATES FEW OR NO CLOUDS BELOW 12,000 FEET WITH NO
SIGNIFICANT WEATHER AND/OR OBSTRUCTIONS TO VISIBILITY.

...SOUTH CENTRAL NEBRASKA...

CITY           SKY/WX    TMP DP  RH WIND       PRES   REMARKS
GRAND ISLAND   CLEAR     31  22  69 W10       30.08R WCI  22
HASTINGS       PTCLDY    33  22  63 NW14      30.09R WCI  23
ORD            PTCLDY    37  23  56 W18       30.05R WCI  27
YORK           PTCLDY    36  25  64 NW18      30.05R WCI  25
AURORA         CLEAR     34  24  65 NW16      30.06R WCI  24
LEXINGTON      CLOUDY    31  24  75 W12       30.11R WCI  21
HOLDREGE       CLOUDY    30  23  74 NW6       30.10R WCI  24
HEBRON         PTCLDY    35  26  69 W7        30.08R WCI  29

...NEBRASKA PANHANDLE...

CITY           SKY/WX    TMP DP  RH WIND       PRES   REMARKS
CHADRON        CLOUDY    34  19  54 W15       30.19R WCI  24
ALLIANCE       CLOUDY    31  21  66 NW22G28   30.17R WCI  18
SCOTTSBLUFF    CLOUDY    31  24  75 NW14      30.24S WCI  21
SIDNEY         CLOUDY    29  22  75 NW23G30   30.22R WCI  15

...WESTERN AND NORTH CENTRAL NEBRASKA...

CITY           SKY/WX    TMP DP  RH WIND       PRES   REMARKS
VALENTINE      MOCLDY    35  20  54 W17       30.07R WCI  25
AINSWORTH      PTCLDY    37  21  54 NW14G22   30.05R WCI  28
ONEILL         CLOUDY    37  25  61 W20G25    30.00R WCI  27
BROKEN BOW     CLOUDY    36  24  62 NW16      30.08R WCI  26
IMPERIAL       CLOUDY    32  19  58 NW17G25   30.19R WCI  21
NORTH PLATTE   CLOUDY    32  23  69 NW14      30.14R WCI  22
MCCOOK         CLOUDY    31  21  66 W12       30.16R WCI  22

...EASTERN NEBRASKA...

CITY           SKY/WX    TMP DP  RH WIND       PRES   REMARKS
NORFOLK        CLEAR     34  23  64 W14       29.97F WCI  25
SO SIOUX CITY  PTCLDY    37  24  59 W13       29.92S WCI  29
TEKAMAH        CLEAR     37  24  59 W24G31    29.95R WCI  26
COLUMBUS       CLEAR     34  18  51 W13       30.02R WCI  25
ALBION         CLEAR     36  23  58 NW15G21   30.01S WCI  27
OMAHA EPPLEY   CLOUDY    38  25  59 NW17      29.96R WCI  28
OFFUTT AFB     CLOUDY    36  25  64 W6        29.98R WCI  31
MILLARD        CLOUDY    38  26  61 NW12      29.97R WCI  30
LINCOLN        CLOUDY    37  24  59 NW14      30.03R WCI  28
NEBRASKA CITY  CLOUDY    33  27  79 W8        29.99S WCI  26
BEATRICE       CLOUDY    34  28  77 W8        30.04R WCI  28
FALLS CITY     CLOUDY    35  27  72 W10       30.01R WCI  27

...NORTHERN KANSAS...

CITY           SKY/WX    TMP DP  RH WIND       PRES   REMARKS
GOODLAND       CLEAR     26  15  63 NW14      30.19R WCI  14
HILL CITY      PTCLDY    34  25  69 NW8       30.16R WCI  27
NORTON         MOSUNNY   30  19  64 NW16      30.13R WCI  19
PHILLIPSBURG   PTCLDY    34  27  75 CALM      30.15R
BELOIT         CLEAR     34  28  80 W6        30.11R WCI  29
HAYS           CLOUDY    36  21  55 NW12      30.15R WCI  27
RUSSELL        PTCLDY    35  29  78 W7        30.14R WCI  29
CONCORDIA      PTCLDY    36  26  67 W8        30.10R WCI  30
SALINA         CLOUDY    39  28  64 W5        30.13R
TOPEKA         CLOUDY    38  27  64 W8        30.06R WCI  32



USA.gov is the U.S. government's official web portal to all federal, state and local government web resources and services.